Location: Dampvalley
(47.9094°N, 6.1967°E)
Time: 01:44:36
(UTC+00:00)

Cosmos 2221 - Visible Passes

Search period start: 23 June 2021 00:00
Search period end: 03 July 2021 00:00
Orbit: 592 x 616 km, 82.5° (Epoch: 22 June)

Date Brightness Start Highest point End Pass type
(mag) Time Alt. Az. Time Alt. Az. Time Alt. Az.
23 Jun 3.2 00:59:41 10° NNW 01:03:42 40° W 01:05:17 28° SW visible
23 Jun 3.8 23:34:51 10° N 23:38:44 32° ENE 23:40:49 21° ESE visible
24 Jun 3.8 01:12:38 10° NNW 01:16:10 25° W 01:17:38 21° WSW visible
24 Jun 3.0 23:47:13 10° N 23:51:26 51° ENE 23:53:10 31° SE visible
25 Jun 4.4 01:25:53 10° NW 01:28:33 16° W 01:29:59 14° WSW visible
25 Jun 2.4 23:59:45 10° N 00:04:03 84° ENE 00:05:32 40° SSE visible
26 Jun 4.8 01:40:26 10° WNW 01:40:52 10° W 01:41:19 10° W visible
26 Jun 4.8 22:36:04 10° NNE 22:38:38 15° ENE 22:41:05 10° E visible
27 Jun 2.6 00:12:24 10° NNW 00:16:37 60° W 00:17:55 40° SSW visible
27 Jun 4.3 22:48:00 10° NNE 22:51:27 23° ENE 22:53:28 17° ESE visible
28 Jun 3.3 00:25:11 10° NNW 00:29:08 36° W 00:30:18 30° SW visible
28 Jun 3.6 23:00:14 10° N 23:04:12 35° ENE 23:05:53 25° ESE visible
29 Jun 4.0 00:38:10 10° NW 00:41:33 23° W 00:42:43 21° WSW visible
29 Jun 2.8 23:12:39 10° N 23:16:53 56° ENE 23:18:18 37° SE visible
30 Jun 4.5 00:51:31 10° NW 00:53:56 15° W 00:55:08 14° WSW visible
30 Jun 5.0 21:50:08 10° NE 21:51:14 11° ENE 21:52:20 10° ENE visible
30 Jun 2.4 23:25:11 10° N 23:29:29 89° W 23:30:44 46° S visible
01 Jul 4.6 22:01:21 10° NNE 22:04:07 17° ENE 22:06:20 12° E visible
01 Jul 2.8 23:37:51 10° NNW 23:42:02 54° W 23:43:10 40° SW visible
02 Jul 4.0 22:13:21 10° NNE 22:16:55 25° ENE 22:18:48 18° ESE visible
02 Jul 3.5 23:50:41 10° NNW 23:54:31 33° W 23:55:37 29° WSW visible
